Regional Weather Roundup
Issued by NWS Newport/Morehead, NC

Current Version | Previous Version | Graphics & Text | Print | Product List | Glossary On
Versions: 1 2 3 4 5 6 7 8 9 10 11 12 13 14 15 16 17 18 19 20 21 22 23 24 25 26 27 28 29 30 31 32 33 34 35 36 37 38 39 40 41 42 43 44 45 46 47 48 49 50
000 ASUS42 KMHX 111813 RWRMHX WEATHER ROUNDUP FOR EASTERN NORTH CAROLINA NATIONAL WEATHER SERVICE NEWPORT/MOREHEAD CITY NC 100 PM EST MON DEC 11 2017 NOTE: "FAIR" INDICATES FEW OR NO CLOUDS BELOW 12,000 FEET WITH NO SIGNIFICANT WEATHER AND/OR OBSTRUCTIONS TO VISIBILITY NCZ015>017-031-032-045>047-102-103-111900- NORTH COAST CITY SKY/WX TMP DP RH WIND PRES REMARKS EDENTON SUNNY 52 32 45 W6 30.08F ELIZABETH CITY SUNNY 51 32 48 N5 30.07F KITTY HAWK CLEAR 46 31 56 CALM 30.08F MANTEO SUNNY 47 29 49 NW6 30.09F $$ NCZ045>047-081-094-103-104-111900- CENTRAL COAST CITY SKY/WX TMP DP RH WIND PRES REMARKS FRISCO SUNNY 51 35 54 NW6 30.09F $$ NCZ095-097-098-100-101-111900- SOUTHERN COAST CITY SKY/WX TMP DP RH WIND PRES REMARKS BEAUFORT SUNNY 52 32 46 SW6 30.09F CEDAR ISLAND NOT AVBL JACKSONVILLE SUNNY 52 27 38 E5 30.09F PINEY ISLAND N/A N/A N/A N/A VRB6 30.09F WILMINGTON SUNNY 54 29 38 VRB3 30.10F $$ NCZ011>013-027>030-043-044-078>080-089-090>093-098-111900- COASTAL PLAIN CITY SKY/WX TMP DP RH WIND PRES REMARKS AHOSKIE SUNNY 48 27 43 CALM 30.07F CLINTON SUNNY 51 29 42 CALM 30.10F ELIZABETHTOWN NOT AVBL GOLDSBORO SUNNY 56 29 35 NW7 30.07F GREENVILLE SUNNY 52 30 43 W6 30.10F HAVELOCK SUNNY 55 30 38 CALM 30.10F KENANSVILLE SUNNY 52 27 37 CALM 30.10F KINSTON SUNNY 52 28 40 NW5 30.09F NEW BERN SUNNY 53 31 42 SW5 30.10F RICHLANDS SUNNY 52 28 39 CALM 30.10F ROCKY MOUNT SUNNY 52 29 41 W6 30.07F WASHINGTON SUNNY 51 30 43 W6 30.09F WHITEVILLE SUNNY 51 28 42 CALM 30.11F $$ AMZ130-135-150-152-154-156-158-170-250-252-270-ANZ085-086-088-633-658-670-111900- MARINE OBSERVATIONS STATION/POSITION TIME TEMP WIND PRES WAVE SWELL AIR SEA DIR/SP/G HT/PER HT/PER (UTC) (F) (DEG/KT/KT) (MB) (FT/S) (FT/S) CHESAPEAKE LIGHT NOT AVBL 64 E VA BEACH 1750 46 60 310/ 8/ 14 1018.6 4/ 5 3/ 5 DUCK 1742 46 54 260/ 3/ 4 1018.1 2 E DUCK 1730 54 N/A 1/ 9 OREGON INLET 1742 47 45 300/ 7/ 9 1018.5 13E OREGON INLT 1748 57 N/A 2/ 8 2/ 8 HATTERAS CG 1742 47 51 290/ 6/ 7 1018.7 DIAMOND BUOY 1800 52 75 280/ 10/ 14 1018.7 CAPE LOOKOUT 1800 300/ 4/ 5 1019.4 BEAUFORT LAB 1742 50 51 200/ 3/ 6 1019.0 30 SE NEW RVR IN 1708 49 68 330/ 4/ 6 1020.0 30 SE NEW RVR IN 1800 68 N/A 3/ 5 27 SE WRIGHTSVLE 1708 49 66 270/ 4/ 10 1020.2 5 SE WRIGHTSVLE 1708 46 58 320/ 2/ 6 1020.4 225 S CAPE HAT 1750 65 76 260/ 10/ 12 1019.1 4/ 8 3/ 8 41 SE CHARLESTON 1800 74 280/ 12/ 16 1019.9 $$

USA.gov is the U.S. government's official web portal to all federal, state and local government web resources and services.